Location: Wakeley
(44.8280°N, 106.8906°W)
Time: 00:26:46
(UTC+00:00)

Envisat - Visible Passes

Search period start: 21 January 2022 00:00
Search period end: 31 January 2022 00:00
Orbit: 764 x 766 km, 98.2° (Epoch: 20 January)

Date Brightness Start Highest point End Pass type
(mag) Time Alt. Az. Time Alt. Az. Time Alt. Az.
21 Jan 5.6 10:49:58 10° NE 10:53:13 17° E 10:56:27 10° SE visible
21 Jan 2.9 12:27:38 10° N 12:32:41 64° WNW 12:37:41 10° SSW visible
22 Jan 3.4 11:50:46 10° NNE 11:55:49 61° E 12:00:50 10° S visible
22 Jan 4.2 13:30:49 10° NNW 13:34:22 19° WNW 13:37:54 10° WSW visible
23 Jan 6.4 00:50:37 10° W 00:51:49 11° W 00:53:02 10° WNW visible
23 Jan 4.8 11:14:22 10° NE 11:18:46 28° E 11:23:05 10° SSE visible
23 Jan 3.4 12:53:09 10° N 12:57:50 38° WNW 13:02:30 10° SW visible
24 Jan 5.8 10:39:06 10° ENE 10:41:29 13° E 10:43:50 10° ESE visible
24 Jan 2.8 12:16:00 10° N 12:21:07 80° WNW 12:26:11 10° SSW visible
24 Jan 4.7 13:57:23 10° NW 13:59:17 12° WNW 14:01:11 10° WNW visible
25 Jan 3.8 11:39:16 10° NNE 11:44:12 48° E 11:49:05 10° S visible
25 Jan 4.0 13:18:54 10° NNW 13:22:54 24° WNW 13:26:52 10° WSW visible
26 Jan 6.0 00:37:27 10° WSW 00:40:04 14° W 00:42:42 10° WNW visible
26 Jan 5.2 11:03:05 10° NE 11:07:04 23° E 11:11:01 10° SE visible
26 Jan 3.2 12:41:26 10° N 12:46:18 47° WNW 12:51:09 10° SW visible
27 Jan 3.0 12:04:25 10° NNE 12:09:31 82° ESE 12:14:36 10° SSW visible
27 Jan 4.5 13:45:04 10° NNW 13:47:52 15° WNW 13:50:38 10° W visible
28 Jan 4.3 11:27:48 10° NNE 11:32:32 38° E 11:37:14 10° SSE visible
28 Jan 3.8 13:07:04 10° N 13:11:25 29° WNW 13:15:45 10° SW visible
29 Jan 5.5 10:51:54 10° NE 10:55:21 18° E 10:58:46 10° SE visible
29 Jan 2.9 12:29:45 10° N 12:34:45 60° WNW 12:39:44 10° SSW visible
30 Jan 3.3 11:52:50 10° NNE 11:57:55 65° ESE 12:02:57 10° S visible
30 Jan 4.3 13:33:00 10° NNW 13:36:25 18° WNW 13:39:49 10° WSW visible
